Location: Newark
(35.2672°N, 80.7344°W)
Time: 14:43:01
(UTC+00:00)

Tiros 1 - Pass Details

Date: 26 January 2020
Orbit: 631 x 664 km, 48.4° (Epoch: 23 February)

Event Time Altitude Azimuth Distance (km) Brightness Sun altitude
Rises 19:36:44 0° 289° (WNW) 2,943 10.7 28.9°
Reaches altitude 10° 19:39:45 10° 309° (NW) 2,042 9.8 28.5°
Maximum altitude 19:42:56 18° 351° (N) 1,604 8.9 28.1°
Drops below altitude 10° 19:46:08 10° 34° (NE) 2,058 9.3 27.8°
Sets 19:49:12 0° 54° (NE) 2,977 10.0 27.4°
